Theta_e
338 343 349 349 348 348 348 348 347 347 346 345 343 341 340 339 342 342 342 340 337 337 339 339 337 336 335 335 335 336 335 336 337 338 338 338 341 341 341 339 339 334 337
340 343 347 348 348 348 348 347 347 345 343 341 342 340 338 338 339 340 340 340 338 337 337 337 337 337 335 334 334 334 334 335 336 336 336 339 340 339 337 336 335 332 334
340 343 345 347 349 349 348 347 346 344 341 340 337 338 337 337 338 337 338 338 337 336 336 335 336 334 334 335 335 334 335 335 335 337 338 335 332 336 335 333 333 332 332
341 342 343 346 348 348 348 346 345 344 340 338 336 336 336 335 337 340 336 340 337 335 336 336 335 334 334 334 334 334 333 334 336 336 334 334 332 335 333 331 331 330 329
338 342 342 345 348 348 347 346 345 344 342 338 336 337 336 335 337 338 337 339 337 334 336 335 333 333 333 333 332 331 333 335 336 334 332 331 328 330 331 329 327 327 327
340 343 342 346 347 347 346 346 345 343 340 339 336 336 337 333 336 338 338 337 335 336 334 332 333 332 331 331 330 331 333 335 334 329 329 330 326 330 329 327 327 326 326
337 341 342 344 345 346 346 346 345 344 342 339 338 336 335 334 335 336 337 336 337 335 332 333 332 332 331 330 330 331 332 333 329 329 327 327 324 328 328 327 326 325 325
337 340 341 338 341 344 345 345 345 344 343 341 340 336 335 335 336 336 336 335 336 337 336 334 332 331 330 329 329 330 330 329 327 324 324 324 329 327 327 326 325 324 324
335 339 340 340 339 337 340 341 342 342 341 340 339 338 337 336 337 337 336 336 333 332 334 334 333 331 329 328 327 328 328 328 323 321 326 323 329 327 326 324 324 323 323
335 336 338 338 338 337 337 335 336 338 338 338 337 334 332 332 333 332 331 331 332 333 333 332 331 332 330 327 325 326 326 326 321 323 323 323 327 325 325 323 322 322 322
334 333 333 335 335 335 335 332 330 333 334 333 331 328 326 327 327 326 327 331 334 334 332 331 330 332 330 327 326 325 325 322 320 322 324 328 325 324 323 322 321 321 321
329 329 330 330 330 331 333 332 334 335 334 332 330 327 327 326 326 327 325 328 331 331 332 329 329 330 325 320 319 322 320 321 319 321 322 327 324 323 322 321 320 320 319
330 328 328 328 329 328 327 331 334 334 334 332 330 328 327 326 324 325 323 323 323 322 323 326 324 321 321 321 321 320 321 320 318 318 320 325 325 322 321 319 319 319 318
329 330 328 327 327 327 327 329 334 336 334 332 332 331 326 323 322 322 323 322 321 321 320 320 320 321 321 322 321 321 320 317 316 317 316 320 326 323 322 319 318 318 317
327 329 331 328 327 328 326 326 329 332 333 332 332 330 327 323 321 321 321 321 321 320 319 320 320 321 320 321 321 321 320 317 315 316 315 317 323 324 323 320 319 318 317
328 328 329 330 329 328 326 326 326 327 331 330 330 328 328 326 322 321 320 321 320 320 319 320 320 320 320 320 320 322 322 319 317 315 316 316 321 325 323 322 320 319 319
328 329 329 329 330 329 327 328 327 327 327 327 327 328 328 327 324 320 319 319 319 319 319 319 320 320 319 320 319 322 322 322 317 315 315 316 317 320 323 322 321 319 318
330 329 331 331 330 330 329 328 328 328 327 327 326 327 327 328 326 320 319 318 319 319 318 318 318 318 318 318 318 319 320 321 321 315 314 315 315 316 318 321 321 319 318
329 329 330 330 329 330 330 330 331 329 328 327 327 326 326 327 326 320 320 319 319 318 317 318 318 318 317 317 318 320 320 320 320 317 314 314 314 314 312 317 318 318 317
327 329 329 330 331 330 331 331 330 330 330 330 328 327 326 327 326 322 321 321 320 317 317 317 317 319 318 317 317 318 319 320 320 317 313 314 312 312 312 311 310 309 314
325 327 329 329 330 331 329 328 328 327 328 329 329 329 327 326 326 324 323 322 322 320 318 318 318 318 317 318 316 317 317 318 319 317 314 311 311 311 310 310 308 306 306
322 325 327 329 330 330 331 330 330 329 329 329 330 329 329 327 326 325 324 323 322 322 321 320 318 317 317 318 314 314 309 311 314 316 314 313 311 310 309 309 308 306 304
320 323 325 326 328 330 331 331 331 330 329 327 327 328 329 329 328 326 325 324 323 323 321 321 319 318 315 316 317 312 307 305 308 311 310 312 310 309 309 308 307 305 304
315 320 324 326 327 328 329 329 329 327 325 327 327 328 329 329 328 328 326 325 324 324 322 322 322 320 318 315 316 318 316 312 307 304 306 307 310 309 309 308 306 305 304
311 311 317 321 323 326 328 329 329 328 328 328 328 327 327 328 328 328 327 325 324 324 323 322 322 321 320 318 316 314 315 315 314 312 308 309 304 306 309 309 307 306 303
308 311 312 313 316 320 324 326 327 328 327 326 326 326 327 328 328 328 328 326 325 324 323 323 322 321 321 320 319 317 314 310 311 309 309 310 309 309 305 307 307 307 304
Wind_Speed
11 9 9 10 12 12 11 14 14 11 12 13 13 11 12 12 11 12 14 15 14 14 15 16 16 16 16 15 14 14 12 12 12 12 13 12 14 20 21 19 17 14 19
13 10 9 10 11 13 13 13 11 11 10 10 12 11 10 11 11 13 13 13 15 14 15 15 15 16 15 13 13 10 9 10 10 9 7 11 17 18 18 18 16 14 17
13 10 9 10 12 13 13 13 13 12 12 11 10 10 10 11 10 12 13 10 12 14 14 14 14 14 14 12 10 8 7 8 9 10 2 7 10 17 17 16 16 16 16
13 10 9 10 12 13 13 13 13 12 13 11 10 10 10 11 9 12 12 12 14 11 13 13 13 12 11 10 8 6 5 8 8 8 7 8 10 15 15 16 16 16 16
9 11 10 10 12 13 13 12 13 12 12 12 11 10 11 9 9 11 10 13 11 11 13 11 11 11 10 8 7 5 9 10 8 9 7 7 7 12 15 15 14 15 15
12 11 11 10 11 12 12 13 13 13 13 12 11 10 12 10 8 10 11 12 10 12 11 10 10 10 9 8 7 6 8 9 10 6 7 10 7 12 14 14 14 14 13
10 11 9 9 9 10 12 13 13 13 13 13 12 10 11 10 7 10 11 8 9 12 9 10 9 8 7 7 7 7 8 10 6 6 9 6 6 12 12 13 13 13 12
11 9 11 7 7 8 10 12 12 11 12 12 12 12 11 10 9 9 10 8 8 9 10 10 8 7 6 6 6 7 8 8 2 4 8 6 10 11 11 11 12 11 12
9 9 9 7 6 5 8 10 10 10 11 12 12 11 10 9 10 9 9 8 9 8 7 7 7 6 5 4 4 6 7 8 3 2 10 5 8 10 10 10 10 10 11
7 10 10 9 8 6 5 7 7 11 10 10 10 10 9 8 8 7 7 9 9 8 7 7 5 6 5 3 2 4 8 10 1 5 6 4 9 7 8 8 8 9 9
6 5 6 10 9 8 7 7 6 11 11 10 9 8 6 4 6 7 5 9 9 8 7 5 5 5 6 3 2 5 6 3 4 5 5 11 7 6 7 7 7 8 8
7 6 5 5 7 7 7 7 6 6 5 5 6 6 5 5 5 6 7 8 8 7 6 6 5 5 6 4 3 6 2 3 3 5 4 9 7 5 5 5 5 6 6
8 6 6 5 6 6 4 5 4 4 4 4 7 7 6 4 4 4 3 3 3 4 3 4 4 4 6 5 4 3 3 2 2 4 5 5 8 4 4 4 4 5 5
7 10 7 7 6 7 4 4 5 6 5 4 5 8 4 2 4 4 4 5 5 4 6 5 4 6 6 2 1 2 3 2 1 3 4 6 6 7 5 4 4 4 4
9 8 10 7 7 6 6 5 5 6 4 6 5 6 4 4 5 5 4 5 5 5 5 5 4 4 3 3 4 3 3 3 2 2 3 8 8 8 8 6 6 6 6
8 8 8 11 7 7 6 6 4 5 7 6 6 6 7 5 5 5 5 5 5 5 5 5 5 4 4 5 5 5 5 5 4 3 4 5 9 9 10 9 8 8 9
9 9 8 9 9 7 8 7 5 4 5 5 5 7 8 6 6 6 5 5 4 5 6 4 4 4 4 4 6 6 5 6 5 5 3 4 5 9 9 11 10 9 10
11 13 12 7 9 9 7 7 6 5 5 5 5 5 8 8 7 6 5 5 5 4 4 3 4 3 4 4 4 5 4 4 5 6 4 4 4 5 9 12 12 12 12
13 13 15 11 10 10 10 7 8 8 6 5 5 5 7 8 8 6 5 5 6 5 5 5 5 5 4 5 5 4 4 4 5 5 6 6 6 5 4 11 14 12 14
11 13 11 12 13 11 9 8 5 6 8 8 6 6 8 8 9 8 5 6 6 5 5 4 6 5 4 5 4 4 4 4 4 5 6 5 6 6 6 6 6 6 13
9 11 12 14 15 11 10 9 9 10 8 8 7 10 10 9 11 10 7 5 6 6 6 6 5 6 4 4 1 1 3 5 6 5 5 5 6 7 7 6 5 5 6
13 11 13 15 15 14 11 11 10 9 8 9 8 9 11 11 11 11 11 9 8 6 8 8 7 4 4 5 4 1 3 3 7 8 5 6 7 5 7 8 7 7 6
13 13 12 12 12 12 14 9 7 7 7 7 9 11 13 14 13 13 13 11 10 9 9 9 8 10 6 4 8 5 3 5 2 2 7 6 6 5 6 7 9 8 7
9 10 14 13 13 12 11 11 14 12 12 12 11 11 11 15 15 14 14 14 13 10 11 10 9 9 7 8 3 9 7 3 2 2 2 4 5 7 9 5 7 9 10
6 1 7 10 11 13 13 14 13 14 11 9 10 12 14 12 16 16 15 15 14 11 13 13 11 12 10 9 6 3 9 8 8 7 9 5 3 5 7 7 7 8 9
6 6 6 6 7 8 11 14 16 17 15 11 12 10 10 10 11 16 16 15 15 14 14 13 14 14 14 12 10 9 7 5 9 8 10 12 10 6 7 9 8 9 8
Wind_Direction
111 125 130 131 124 121 112 109 102 98 96 95 99 92 97 98 95 98 99 100 89 90 85 81 85 82 79 80 77 68 68 65 57 57 62 62 67 66 63 60 55 55 55
123 124 132 129 130 120 118 111 106 94 89 91 93 96 101 101 98 97 88 95 102 90 90 89 90 82 83 79 79 74 64 43 34 34 26 66 68 65 61 59 63 63 63
112 124 133 129 125 121 121 117 109 107 107 105 102 103 102 108 103 100 95 95 104 98 94 94 93 87 85 80 78 70 61 44 24 2 22 85 70 65 62 59 65 64 68
125 142 130 128 129 126 125 123 117 115 110 107 104 100 104 108 115 102 94 97 101 98 99 97 93 89 85 77 69 53 42 42 18 8 68 75 71 61 61 65 64 68 66
131 114 122 129 135 133 133 132 126 123 115 111 115 113 106 108 105 109 98 104 104 105 103 100 96 86 79 71 57 20 26 17 26 86 72 57 69 65 67 66 66 66 68
117 117 127 132 141 142 141 142 136 129 127 124 120 113 110 116 109 105 98 98 110 108 108 104 95 91 80 65 48 10 23 33 70 62 71 69 64 68 71 72 71 71 70
111 121 128 137 145 144 147 150 149 141 139 132 124 129 116 120 116 106 104 104 115 118 116 110 105 96 79 62 35 8 10 354 91 76 82 71 64 70 72 71 72 71 72
120 138 132 146 156 151 145 151 154 149 143 138 134 131 132 135 130 125 122 121 119 123 114 128 122 108 90 67 34 1 357 355 109 79 97 81 71 72 76 75 73 73 70
130 125 140 153 163 157 144 150 154 155 148 145 141 141 137 150 144 148 144 156 151 143 125 129 141 136 122 91 43 354 340 331 69 97 104 80 78 79 82 79 76 77 76
135 149 160 160 156 170 156 150 158 157 153 145 138 139 145 140 137 144 157 168 166 145 152 154 153 169 157 125 56 328 330 335 340 106 89 95 81 83 81 81 79 78 79
146 182 173 160 171 175 168 163 161 161 153 141 138 144 153 159 162 162 178 158 149 155 168 163 169 181 154 160 231 280 308 294 43 80 98 100 96 103 96 92 86 82 81
160 190 189 165 172 175 176 144 166 161 157 160 157 164 197 180 184 167 146 153 160 173 174 183 194 192 191 196 202 256 282 22 55 102 88 123 124 120 108 103 96 90 88
183 176 189 188 180 172 165 151 156 157 177 178 183 175 224 161 150 140 142 152 158 181 192 197 208 218 224 229 187 198 107 281 110 97 120 104 139 152 140 125 115 105 100
247 198 181 192 190 179 167 168 169 174 182 172 177 191 201 163 164 183 163 182 184 182 214 197 198 220 218 235 194 189 179 117 107 111 145 141 197 175 173 162 153 145 145
234 200 192 200 187 187 183 191 170 175 181 178 182 189 185 183 180 196 192 181 194 182 211 201 218 202 213 224 202 214 189 160 177 156 156 163 180 191 196 191 194 189 192
213 249 186 179 210 184 193 189 212 178 182 184 196 190 190 183 189 197 207 199 187 196 202 196 207 193 200 208 209 203 224 178 227 219 156 172 190 204 208 211 214 212 213
211 224 249 184 182 210 190 198 194 211 188 185 193 186 182 197 199 189 198 206 203 198 200 213 216 194 203 211 203 208 225 228 196 223 211 184 191 207 217 226 235 237 232
200 200 222 199 181 194 222 194 191 199 202 195 192 190 187 188 202 200 193 196 202 198 189 202 201 213 224 221 204 217 206 206 199 201 217 213 192 197 213 225 236 239 238
198 207 200 193 189 193 212 234 198 191 198 197 192 197 199 190 197 204 194 199 192 191 191 194 207 190 204 223 220 219 213 202 198 191 211 219 216 209 196 216 217 224 235
198 211 198 193 195 196 195 217 231 206 202 200 199 199 198 197 199 208 211 201 191 183 195 194 202 215 196 208 207 224 235 220 208 200 210 211 210 218 222 209 206 213 220
198 206 209 192 197 193 196 199 216 213 205 202 208 204 200 198 198 204 213 207 196 190 193 202 197 209 234 192 201 226 246 229 236 219 208 211 213 210 209 215 204 206 214
199 209 221 219 203 200 204 204 206 214 215 209 202 207 208 201 199 203 206 210 203 196 199 202 196 197 202 191 171 175 274 281 245 230 202 212 215 206 215 215 213 208 204
193 203 215 230 227 217 211 208 207 213 217 210 212 213 212 208 203 202 203 206 207 202 206 205 200 200 200 211 192 165 199 232 208 208 219 211 208 211 218 208 213 210 207
212 209 208 212 216 220 217 210 207 210 212 215 218 220 211 210 210 209 208 205 205 204 208 205 201 204 188 203 185 216 230 163 223 299 304 233 221 220 227 223 212 213 212
358 239 217 222 218 218 216 222 216 221 225 219 218 222 216 208 211 212 208 209 211 208 211 205 200 201 202 207 198 162 223 237 235 242 269 239 263 237 230 224 209 216 210
341 306 270 248 244 224 217 225 225 222 224 223 225 222 222 212 207 213 213 210 212 212 211 207 204 204 207 209 214 209 192 180 212 213 238 249 242 232 216 226 216 220 208